{"data":{"norad_id":48071,"intl_designator":"2021-025AF","name":"ONEWEB-0172","alt_names":[],"object_type":"PAYLOAD","status":"ACTIVE","operator":null,"country":"UK","launch_date":"2021-03-25","launch_site_code":"VOSTO","launch_vehicle":null,"mission":null,"orbit_class":"UNKNOWN","rcs_meters":null,"size_class":null,"mass_kg":null,"dimensions":null,"purposes":["comms"],"wikipedia_slug":null,"has_3d_model":false,"image_url":null,"decayed_at":null,"tle_current":{"epoch":"2026-05-24T23:48:56.968128Z","epoch_age_seconds":73204,"freshness":"FRESH","line1":"1 48071U 21025AF  26144.99232602 -.00000226  00000+0 -65393-3 0  9990","line2":"2 48071  87.8947 324.8401 0001612  92.6596 267.4718 13.13470054251465","mean_motion":13.13470054,"eccentricity":0.0001612,"inclination_deg":87.8947,"raan_deg":324.8401,"arg_perigee_deg":92.6596,"mean_anomaly_deg":267.4718,"bstar":-0.00065393,"rev_number":25146,"period_min":109.6332570061,"perigee_km":1208.5420220953,"apogee_km":1210.988361762,"semimajor_km":7587.9021919286,"source":"CELESTRAK","updated_at":"2026-05-25T13:38:22.393825Z"}}}